sat.trackr.live / text

‹ back to catalog

STARLINK-36790

NORAD 68095 · 2026-042AC

PAYLOAD ACTIVE UNKNOWN

§ Identity

Operator
Country
US
Launch date
2026-03-04
Launch site
AFETR
Launch vehicle
Mass (kg)
RCS (m²)

Purposes: comms

External: N2YO · Heavens-Above · Gunter

§ Orbital elements

Epoch: 2026-09-19T19:03:01.446336Z

Period
93.85 min
Inclination
53.1610°
Eccentricity
0.0001137
Mean motion
15.34418423 rev/d
Perigee alt
461.9 km
Apogee alt
463.4 km
Semi-major
6,840.8 km
B*
8.4688e-4
RAAN
352.8465°
Arg perigee
70.6950°
Mean anomaly
289.4175°
Rev number
3,207

§ Raw data

STARLINK-367901 68095U 26042AC  26262.79376674  .00028362  00000+0  84688-3 0  99962 68095  53.1610 352.8465 0001137  70.6950 289.4175 15.34418423 32071

JSON: /api/v1/satellites/68095 · /tle

For live sub-satellite position, see the globe view (requires WebGL).

§ Visibility from observer

Set your observer location to see the next 7 days of passes ≥ 10°. The values pass through the URL so the page stays shareable.

No JS? Fill the form by hand. The geolocation button needs JavaScript.